CW7536 Weather Reports


Display with metric or nautical units.
time (UTC)temp
F
wind
direction
speed
MPH
gust
MPH
rain 1hr
in
rain 24hr
in
rain mn
in
humidity
%
barometer
mb
20260510130036 55 143 0.0 1.0 0.00 0.00 0.00 1 1013.4
20260510124532 54 188 0.0 0.0 0.00 0.00 0.00 1 1013.0
20260510123026 53 286 0.0 0.0 0.00 0.00 0.00 1 1013.0
20260510121526 53 287 0.0 1.0 0.00 0.00 0.00 1 1013.0
20260510120025 52 285 0.0 1.0 0.00 0.00 0.00 1 1012.6
20260510114515 52 285 0.0 0.0 0.00 0.00 0.00 1 1012.6
20260510113008 52 285 0.0 0.0 0.00 0.00 0.00 1 1012.6
20260510111503 51 297 0.0 0.0 0.00 0.00 0.00 1 1012.5
20260510110100 51 297 0.0 1.0 0.00 0.00 0.00 1 1012.3
20260510104612 51 297 0.0 1.0 0.00 0.00 0.00 1 1012.1
20260510103051 50 47 0.0 0.0 0.00 0.00 0.00 1 1012.0
20260510101546 50 47 0.0 0.0 0.00 0.00 0.00 1 1011.9
20260510100042 50 58 0.0 0.0 0.00 0.00 0.00 1 1012.0
20260510094541 50 58 0.0 0.0 0.00 0.00 0.00 1 1012.1
20260510093033 50 58 0.0 0.0 0.00 0.00 0.00 1 1012.1
20260510091532 50 58 0.0 0.0 0.00 0.00 0.00 1 1012.0
20260510090025 51 58 0.0 0.0 0.00 0.00 0.00 1 1012.4
20260510084521 51 58 0.0 0.0 0.00 0.00 0.00 1 1012.5
20260510083015 51 58 0.0 0.0 0.00 0.00 0.00 1 1012.4
20260510081511 51 326 0.0 1.0 0.00 0.00 0.00 1 1012.2
20260510080007 51 60 0.0 0.0 0.00 0.00 0.00 1 1012.0
20260510074503 51 86 0.0 0.0 0.00 0.00 0.00 1 1011.5
20260510073058 51 86 0.0 0.0 0.00 0.00 0.00 1 1011.5
20260510071553 51 86 0.0 0.0 0.00 0.00 0.00 1 1011.4
20260510070055 51 86 0.0 0.0 0.00 0.00 0.00 1 1011.5
20260510064545 51 86 0.0 1.0 0.00 0.00 0.00 1 1011.6
20260510063040 51 88 0.0 1.0 0.00 0.00 0.00 1 1011.7
20260510061538 51 88 0.0 0.0 0.00 0.00 0.00 1 1011.5
20260510060045 51 88 0.0 0.0 0.00 0.00 0.00 1 1011.2
20260510054527 51 88 0.0 0.0 0.00 0.00 0.00 1 1011.4
20260510053022 51 87 0.0 0.0 0.00 0.00 0.00 1 1011.4
20260510051519 50 88 0.0 0.0 0.00 0.00 0.00 1 1011.3
20260510050018 50 88 0.0 0.0 0.00 0.00 0.00 1 1011.6
20260510044509 50 88 0.0 0.0 0.00 0.00 0.00 1 1011.6
20260510043006 50 88 0.0 1.0 0.00 0.00 0.00 1 1011.6
20260510041503 50 88 0.0 1.0 0.00 0.00 0.00 1 1011.7
20260510040057 50 88 0.0 0.0 0.00 0.00 0.00 1 1011.4
20260510034555 50 88 0.0 0.0 0.00 0.00 0.00 1 1011.4
20260510033050 50 88 0.0 0.0 0.00 0.00 0.00 1 1011.4
20260510031615 50 88 0.0 0.0 0.00 0.00 0.00 1 1011.3
20260510030040 50 88 0.0 0.0 0.00 0.00 0.00 1 1011.2
20260510024537 50 88 0.0 0.0 0.00 0.00 0.00 1 1011.2
20260510023042 51 88 0.0 0.0 0.00 0.00 0.00 1 1011.2
20260510021526 51 88 0.0 0.0 0.00 0.00 0.00 1 1011.3
20260510020021 52 88 0.0 0.0 0.00 0.00 0.00 1 1011.4
20260510014516 52 88 0.0 0.0 0.00 0.00 0.00 1 1011.1
20260510013013 52 88 0.0 0.0 0.00 0.00 0.00 1 1011.2
20260510011512 52 88 0.0 0.0 0.00 0.00 0.00 1 1011.2
20260510010010 52 88 0.0 0.0 0.00 0.00 0.00 1 1010.9
20260510004600 53 88 0.0 0.0 0.00 0.00 0.00 1 1010.6
20260510003101 53 88 0.0 0.0 0.00 0.00 0.00 1 1010.5
20260510001550 54 88 0.0 0.0 0.00 0.00 0.00 1 1010.5
20260510000049 54 88 0.0 0.0 0.00 0.00 0.00 1 1010.7
20260509234541 55 88 0.0 0.0 0.00 0.00 0.00 1 1010.5
20260509233039 55 88 0.0 0.0 0.00 0.00 0.00 1 1010.4
20260509231534 56 88 0.0 0.0 0.00 0.00 0.00 1 1010.3
20260509230030 56 88 0.0 0.0 0.00 0.00 0.00 1 1010.4
20260509224526 56 112 0.0 1.0 0.00 0.00 0.00 1 1010.4
20260509223026 56 113 0.0 1.0 0.00 0.00 0.00 1 1010.8
20260509221517 56 113 0.0 1.0 0.00 0.00 0.00 1 1010.7
20260509220014 56 113 0.0 1.0 0.00 0.00 0.00 1 1010.8
20260509214508 56 91 0.0 0.0 0.00 0.00 0.00 1 1010.8
20260509213008 56 91 0.0 1.0 0.00 0.00 0.00 1 1010.9
20260509211507 56 87 0.0 0.0 0.00 0.00 0.00 1 1010.9
20260509210004 56 88 0.0 0.0 0.00 0.00 0.00 1 1010.9
20260509204604 56 85 0.0 0.0 0.00 0.00 0.00 1 1010.8
20260509203100 57 85 0.0 1.0 0.00 0.00 0.00 1 1010.8
20260509201551 57 87 0.0 1.0 0.00 0.00 0.00 1 1010.8
20260509200047 56 281 0.0 0.0 0.00 0.00 0.00 1 1011.0
20260509194544 57 281 0.0 1.0 0.00 0.00 0.00 1 1011.3
20260509193038 57 281 0.0 2.0 0.00 0.00 0.00 1 1011.5
20260509191533 57 243 0.0 5.0 0.00 0.00 0.00 1 1011.4
20260509190029 58 274 0.0 1.0 0.00 0.00 0.00 1 1011.2
20260509184525 57 262 0.0 1.0 0.00 0.00 0.00 1 1011.4
20260509183022 57 238 0.0 2.0 0.00 0.00 0.00 1 1011.0
20260509181516 58 247 0.0 6.0 0.00 0.00 0.00 1 1011.4
20260509180011 60 288 1.0 3.0 0.00 0.00 0.00 1 1011.5
20260509174508 61 264 0.0 3.0 0.00 0.00 0.00 10 1011.4
20260509173002 64 238 0.0 5.0 0.00 0.00 0.00 40 1011.3
20260509171608 65 252 0.0 3.0 0.00 0.00 0.00 43 1010.9
20260509170054 63 244 0.0 4.0 0.00 0.00 0.00 41 1011.0
20260509164551 63 231 0.0 2.0 0.00 0.00 0.00 42 1011.1
20260509163056 63 262 0.0 1.0 0.00 0.00 0.00 39 1011.3
20260509161542 63 295 0.0 5.0 0.00 0.00 0.00 42 1011.5
20260509160039 63 231 1.0 4.0 0.00 0.00 0.00 42 1011.8
20260509154536 62 211 0.0 7.0 0.00 0.00 0.00 36 1012.1
20260509153029 61 237 0.0 2.0 0.00 0.00 0.00 31 1012.0
20260509151524 60 243 0.0 3.0 0.00 0.00 0.00 16 1012.0
20260509150020 59 245 2.0 5.0 0.00 0.00 0.00 10 1012.1
20260509144515 58 268 1.0 5.0 0.00 0.00 0.00 3 1012.1
20260509143010 58 254 1.0 6.0 0.00 0.00 0.00 7 1012.3
20260509141506 58 182 0.0 3.0 0.00 0.00 0.00 1 1012.0
20260509140001 58 160 0.0 2.0 0.00 0.00 0.00 1 1012.1
20260509134559 57 149 0.0 2.0 0.00 0.00 0.00 1 1012.2
20260509133102 56 250 0.0 1.0 0.00 0.00 0.00 1 1012.2
20260509131549 54 100 0.0 1.0 0.00 0.00 0.00 1 1012.1